Location: Nairn
(57.5833°N, 3.8667°W)
Time: 02:26:59
(UTC+00:00)

Resurs 1-4 Rocket - Pass Details

Date: 07 August 2020
Orbit: 799 x 815 km, 98.6° (Epoch: 19 September)

Event Time Altitude Azimuth Distance (km) Brightness Sun altitude
Rises 01:27:49 0° 19° (NNE) 3,341 7.3 -14.8°
Reaches altitude 10° 01:30:19 10° 26° (NNE) 2,403 5.9 -14.7°
Maximum altitude 01:35:21 42° 97° (E) 1,138 3.0 -14.5°
Enters shadow 01:39:25 15° 164° (SSE) 2,050 3.7 -14.3°
